Location: Namasale
(1.5000°N, 32.6167°E)
Time: 13:37:52
(UTC+00:00)

STPSAT 2 (USA 217) - Visible Passes

Search period start: 06 August 2020 00:00
Search period end: 16 August 2020 00:00
Orbit: 622 x 646 km, 72.0° (Epoch: 02 August)

Date Brightness Start Highest point End Pass type
(mag) Time Alt. Az. Time Alt. Az. Time Alt. Az.
08 Aug 7.5 02:39:52 10° NNE 02:43:04 19° ENE 02:46:16 10° ESE visible
08 Aug 8.6 16:32:42 10° W 16:34:07 11° WNW 16:35:33 10° WNW visible
09 Aug 5.3 03:00:45 10° N 03:05:08 58° ENE 03:09:32 10° SSE visible
10 Aug 4.9 03:22:58 10° NNW 03:27:12 43° WSW 03:31:26 10° S visible
11 Aug 7.0 02:06:39 10° NNE 02:10:08 23° ENE 02:13:38 10° SE visible
12 Aug 4.8 02:27:47 10° N 02:32:13 70° ENE 02:36:39 10° SSE visible
13 Aug 5.0 02:50:10 10° NW 02:54:16 36° WSW 02:58:23 10° S visible
14 Aug 6.6 01:33:29 10° NNE 01:37:13 26° ENE 01:40:57 10° SE visible
14 Aug 6.3 03:14:29 10° W 03:16:20 12° WSW 03:18:13 10° SW visible
